TimeEDT,TemperatureF,Dew PointF,Humidity,Sea Level PressureIn,VisibilityMPH,Wind Direction,Wind SpeedMPH,Gust SpeedMPH,PrecipitationIn,Events,Conditions,WindDirDegrees,DateUTC
12:15 AM,34.0,31.1,89,30.03,7.0,Calm,Calm,-,N/A,,Clear,0,2013-03-10 05:15:00
12:35 AM,33.3,30.7,90,30.02,7.0,ESE,3.5,-,N/A,,Clear,110,2013-03-10 05:35:00
12:55 AM,33.4,31.1,91,30.02,7.0,Calm,Calm,-,N/A,,Clear,0,2013-03-10 05:55:00
1:15 AM,33.8,31.1,90,30.02,7.0,ESE,3.5,-,N/A,,Clear,110,2013-03-10 06:15:00
1:35 AM,33.6,31.1,90,30.01,7.0,ESE,3.5,-,N/A,,Clear,110,2013-03-10 06:35:00
1:55 AM,33.8,31.6,92,30.01,7.0,ESE,3.5,-,N/A,,Clear,120,2013-03-10 06:55:00
3:15 AM,34.7,32.0,90,29.99,7.0,ESE,5.8,-,N/A,,Scattered Clouds,120,2013-03-10 07:15:00
3:35 AM,34.9,32.0,89,29.98,7.0,SE,3.5,-,N/A,,Scattered Clouds,130,2013-03-10 07:35:00
3:55 AM,35.4,32.0,87,29.98,7.0,SE,4.6,-,N/A,,Clear,140,2013-03-10 07:55:00
4:15 AM,34.9,31.6,88,29.98,7.0,Calm,Calm,-,N/A,,Clear,0,2013-03-10 08:15:00
4:35 AM,34.7,31.6,89,29.97,7.0,Calm,Calm,-,N/A,,Scattered Clouds,0,2013-03-10 08:35:00
4:55 AM,35.8,32.0,86,29.97,7.0,SSE,3.5,-,N/A,,Mostly Cloudy,150,2013-03-10 08:55:00
5:15 AM,37.4,32.0,81,29.97,10.0,SE,3.5,-,N/A,,Mostly Cloudy,140,2013-03-10 09:15:00
5:35 AM,36.5,32.0,84,29.97,10.0,SE,3.5,-,N/A,,Mostly Cloudy,140,2013-03-10 09:35:00
5:55 AM,38.7,32.0,77,29.97,10.0,SE,3.5,-,N/A,,Scattered Clouds,140,2013-03-10 09:55:00
6:15 AM,39.7,32.5,75,29.97,10.0,SSE,3.5,-,N/A,,Mostly Cloudy,150,2013-03-10 10:15:00
6:35 AM,42.1,32.7,69,29.98,10.0,South,3.5,-,N/A,Rain,Light Rain,170,2013-03-10 10:35:00
6:55 AM,42.4,33.6,71,29.97,10.0,SSE,4.6,-,N/A,,Overcast,150,2013-03-10 10:55:00
7:15 AM,42.4,34.0,72,29.97,10.0,SSE,4.6,-,N/A,,Overcast,160,2013-03-10 11:15:00
7:35 AM,44.8,33.4,64,29.98,10.0,South,5.8,-,N/A,,Overcast,170,2013-03-10 11:35:00
8:35 AM,46.9,33.3,59,29.98,10.0,South,5.8,-,N/A,,Mostly Cloudy,170,2013-03-10 12:35:00
8:55 AM,49.1,33.6,55,29.98,10.0,South,9.2,-,N/A,,Mostly Cloudy,190,2013-03-10 12:55:00
9:15 AM,50.4,33.8,53,29.98,10.0,South,8.1,-,N/A,,Scattered Clouds,180,2013-03-10 13:15:00
9:35 AM,51.3,33.6,51,29.97,10.0,South,10.4,16.1,N/A,,Scattered Clouds,180,2013-03-10 13:35:00
9:55 AM,52.9,33.6,48,29.97,10.0,South,10.4,16.1,N/A,,Scattered Clouds,190,2013-03-10 13:55:00
10:15 AM,54.7,34.0,46,29.97,10.0,South,9.2,18.4,N/A,,Scattered Clouds,180,2013-03-10 14:15:00
10:35 AM,56.7,33.8,42,29.96,10.0,South,15.0,21.9,N/A,,Clear,180,2013-03-10 14:35:00
10:55 AM,58.5,33.8,39,29.95,10.0,South,13.8,24.2,N/A,,Clear,180,2013-03-10 14:55:00
11:15 AM,58.3,33.3,39,29.95,10.0,SSW,13.8,23.0,N/A,,Clear,200,2013-03-10 15:15:00
11:35 AM,59.7,33.4,37,29.95,10.0,South,12.7,25.3,N/A,,Clear,190,2013-03-10 15:35:00
11:55 AM,58.5,33.8,39,29.95,10.0,SSW,11.5,20.7,N/A,,Scattered Clouds,200,2013-03-10 15:55:00
12:15 PM,58.3,34.2,40,29.95,10.0,South,16.1,25.3,N/A,,Scattered Clouds,190,2013-03-10 16:15:00
12:35 PM,59.0,34.9,40,29.95,10.0,SSW,12.7,24.2,N/A,,Clear,200,2013-03-10 16:35:00
12:55 PM,61.0,35.2,38,29.95,10.0,SSW,18.4,26.5,N/A,,Clear,210,2013-03-10 16:55:00
1:15 PM,61.7,36.7,39,29.94,10.0,SSW,15.0,20.7,N/A,,Clear,200,2013-03-10 17:15:00
1:35 PM,61.9,37.0,40,29.93,10.0,SW,10.4,23.0,N/A,,Clear,220,2013-03-10 17:35:00
1:55 PM,63.0,37.4,39,29.93,10.0,SSW,11.5,23.0,N/A,,Clear,200,2013-03-10 17:55:00
2:15 PM,62.8,38.1,40,29.91,10.0,South,9.2,19.6,N/A,,Clear,190,2013-03-10 18:15:00
2:35 PM,64.4,39.7,40,29.91,10.0,SSW,10.4,20.7,N/A,,Clear,200,2013-03-10 18:35:00
2:55 PM,65.5,41.0,41,29.91,10.0,SSW,13.8,20.7,N/A,,Clear,210,2013-03-10 18:55:00
3:15 PM,64.0,41.4,43,29.91,10.0,South,16.1,21.9,N/A,,Mostly Cloudy,190,2013-03-10 19:15:00
3:35 PM,64.0,41.9,44,29.91,10.0,SSW,11.5,18.4,N/A,,Overcast,200,2013-03-10 19:35:00
3:55 PM,64.2,42.1,44,29.91,10.0,South,15.0,19.6,N/A,,Overcast,190,2013-03-10 19:55:00
4:15 PM,65.1,41.2,42,29.90,10.0,South,10.4,19.6,N/A,,Overcast,190,2013-03-10 20:15:00
4:35 PM,65.3,39.4,39,29.89,10.0,South,12.7,19.6,N/A,,Mostly Cloudy,180,2013-03-10 20:35:00
4:55 PM,65.1,36.1,34,29.88,10.0,South,10.4,20.7,N/A,,Scattered Clouds,180,2013-03-10 20:55:00
5:15 PM,64.2,36.3,36,29.88,10.0,South,9.2,-,N/A,,Clear,170,2013-03-10 21:15:00
5:35 PM,64.9,34.7,33,29.88,10.0,South,10.4,19.6,N/A,,Clear,180,2013-03-10 21:35:00
5:55 PM,63.9,33.8,33,29.89,10.0,SSW,13.8,27.6,N/A,,Clear,200,2013-03-10 21:55:00
6:15 PM,64.0,34.0,33,29.88,10.0,South,10.4,19.6,N/A,,Clear,180,2013-03-10 22:15:00
6:35 PM,63.0,34.2,34,29.87,10.0,SSE,9.2,16.1,N/A,,Clear,160,2013-03-10 22:35:00
6:55 PM,62.2,37.2,39,29.87,10.0,SSE,9.2,-,N/A,,Clear,160,2013-03-10 22:55:00
7:15 PM,61.2,38.3,43,29.86,10.0,SSE,9.2,-,N/A,,Clear,160,2013-03-10 23:15:00
7:35 PM,60.1,38.8,45,29.85,10.0,SSE,10.4,-,N/A,,Clear,150,2013-03-10 23:35:00
7:55 PM,59.9,38.3,45,29.85,10.0,SSE,8.1,-,N/A,,Clear,160,2013-03-10 23:55:00
8:15 PM,59.9,37.4,43,29.86,10.0,South,8.1,-,N/A,,Clear,170,2013-03-11 00:15:00
8:35 PM,59.2,37.0,44,29.86,10.0,SSE,6.9,-,N/A,,Clear,160,2013-03-11 00:35:00
8:55 PM,58.6,37.2,45,29.86,10.0,SSE,6.9,-,N/A,,Clear,160,2013-03-11 00:55:00
9:15 PM,58.5,37.6,46,29.86,10.0,SSE,6.9,-,N/A,,Clear,160,2013-03-11 01:15:00
9:35 PM,58.1,37.6,46,29.84,10.0,SE,5.8,-,N/A,,Clear,140,2013-03-11 01:35:00
9:55 PM,57.4,37.8,48,29.85,10.0,SE,4.6,-,N/A,,Clear,140,2013-03-11 01:55:00
10:15 PM,57.4,37.6,48,29.83,10.0,SE,4.6,-,N/A,,Mostly Cloudy,140,2013-03-11 02:15:00
10:35 PM,57.0,37.6,48,29.82,10.0,SE,6.9,-,N/A,,Mostly Cloudy,130,2013-03-11 02:35:00
10:55 PM,57.4,37.0,47,29.82,10.0,South,3.5,-,N/A,,Scattered Clouds,180,2013-03-11 02:55:00
11:15 PM,57.4,36.9,46,29.82,10.0,South,5.8,-,N/A,,Scattered Clouds,170,2013-03-11 03:15:00
11:35 PM,57.4,37.0,47,29.83,10.0,SSW,6.9,-,N/A,,Mostly Cloudy,200,2013-03-11 03:35:00
11:55 PM,56.7,38.7,51,29.84,10.0,South,10.4,-,N/A,Rain,Rain,190,2013-03-11 03:55:00
12:15 AM,54.9,41.4,60,29.83,10.0,SSW,9.2,-,N/A,Rain,Rain,200,2013-03-11 04:15:00
12:35 AM,56.5,41.2,57,29.80,10.0,SSW,4.6,-,N/A,Rain,Light Rain,200,2013-03-11 04:35:00
12:55 AM,55.9,41.7,59,29.81,10.0,SSW,5.8,-,N/A,Rain,Light Rain,200,2013-03-11 04:55:00